Youngstown, OH

1:46 AM EDT on April 26, 2017 (GMT -0400)
Youngstown-Warren Regional

Weather History for KYNG - February, 2014

Change the Weather History Date:

Sunday, February 23, 2014

  Actual Average Record
Temperature  
Mean Temperature 33 °F 30 °F  
Max Temperature 41 °F 38 °F 69 °F (2017)
Min Temperature 24 °F 22 °F -11 °F (2015)
Degree Days  
Heating Degree Days 32 35  
Month to date heating degree days 976 854  
Since 1 July heating degree days 4815 4477  
Cooling Degree Days 0 0  
Month to date cooling degree days 0 0  
Year to date cooling degree days 0 0  
Moisture  
Dew Point 24 °F    
Average Humidity 63    
Maximum Humidity 89    
Minimum Humidity 37    
Precipitation  
Precipitation 0.02 in 0.08 in 0.96 in (1975)
Month to date precipitation 2.06 1.73  
Year to date precipitation 4.49 4.28  
Snow  
Snow 0.20 in 0.40 in - ()
Month to date snowfall 18.5 10.4  
Since 1 July snowfall 76.1 46.4  
Snow Depth 0.00 in    
Sea Level Pressure  
Sea Level Pressure 30.02 in    
Wind  
Wind Speed 9 mph (WSW)    
Max Wind Speed 16 mph    
Max Gust Speed 25 mph    
Visibility 9 miles    
Events Rain , Snow    
T = Trace of Precipitation, MM = Missing Value Source: NWS Daily Summary

Daily Weather History Graph

Daily Weather History Graph

Search for Another Location

Airport or City:

Trip Planner

Search our weather history database for the weather conditions in past years. The results will help you decide how hot, cold, wet, or windy it might be!

Date:

Astronomy

Feb. 23, 2014 Rise Set
Actual Time 7:06 AM EST 6:06 PM EST
Civil Twilight 6:38 AM EST 6:34 PM EST
Nautical Twilight 6:06 AM EST 7:06 PM EST
Astronomical Twilight 5:34 AM EST 7:38 PM EST
Moon 2:04 AM EST (2/23) 12:05 PM EST (2/23)
Length of Visible Light 11h 56m
Length of Day
11h 00m
Last Quarter, 39% of the Moon is Illuminated
Feb 23
Last Quarter
Mar 1
New
Mar 8
First Quarter
Mar 16
Full
Mar 23
Last Quarter

Hourly Weather History & Observations

Time (EST) Temp. Windchill Dew Point Humidity Pressure Visibility Wind Dir Wind Speed Gust Speed Precip Events Conditions
12:00 AM 35.6 °F 30.7 °F 30.2 °F 81% 29.99 in 10.0 mi West 5.8 mph - N/A   Overcast
12:23 AM 35.6 °F 28.6 °F 30.2 °F 81% 30.00 in 10.0 mi West 9.2 mph - N/A   Overcast
12:51 AM 36.0 °F 28.0 °F 30.9 °F 82% 30.02 in 10.0 mi West 11.5 mph - N/A   Overcast
1:51 AM 35.1 °F 29.3 °F 30.9 °F 85% 30.03 in 10.0 mi West 6.9 mph - 0.00 in   Light Drizzle
2:51 AM 34.0 °F 29.8 °F 32.0 °F 92% 30.02 in 10.0 mi WSW 4.6 mph - 0.00 in Rain , Snow Light Rain
3:19 AM 33.8 °F 30.8 °F 30.2 °F 87% 30.00 in 10.0 mi WSW 3.5 mph - 0.00 in Snow Light Snow
3:26 AM 33.8 °F 26.4 °F 30.2 °F 87% 30.00 in 8.0 mi WSW 9.2 mph - 0.00 in Snow Light Snow
3:51 AM 33.1 °F 26.9 °F 30.0 °F 89% 30.03 in 3.0 mi West 6.9 mph - 0.00 in Snow Light Snow
4:27 AM 33.8 °F 29.6 °F 30.2 °F 87% 30.00 in 4.0 mi SW 4.6 mph - 0.00 in Snow Light Snow
4:51 AM 33.1 °F 27.7 °F 30.0 °F 89% 30.01 in 5.0 mi South 5.8 mph - 0.00 in Snow Light Snow
5:18 AM 33.8 °F 30.8 °F 30.2 °F 87% 29.98 in 10.0 mi South 3.5 mph - 0.00 in   Overcast
5:51 AM 33.1 °F 30.0 °F 30.9 °F 92% 30.02 in 10.0 mi South 3.5 mph - 0.00 in   Overcast
6:51 AM 33.1 °F 27.7 °F 30.9 °F 92% 30.03 in 9.0 mi SSW 5.8 mph - N/A   Overcast
7:51 AM 33.1 °F 26.9 °F 30.0 °F 89% 30.04 in 5.0 mi SW 6.9 mph - 0.01 in Snow Light Snow
8:51 AM 33.1 °F 26.9 °F 30.0 °F 89% 30.06 in 10.0 mi SW 6.9 mph - 0.00 in   Mostly Cloudy
9:51 AM 34.0 °F 27.2 °F 30.0 °F 85% 30.04 in 10.0 mi WSW 8.1 mph - 0.00 in   Mostly Cloudy
10:51 AM 35.1 °F 26.9 °F 28.0 °F 76% 30.05 in 10.0 mi WSW 11.5 mph - N/A   Mostly Cloudy
11:51 AM 37.0 °F 29.3 °F 23.0 °F 57% 30.04 in 10.0 mi WSW 11.5 mph - N/A   Mostly Cloudy
12:51 PM 39.9 °F 35.1 °F 21.9 °F 49% 30.01 in 10.0 mi West 6.9 mph - N/A   Overcast
1:51 PM 39.0 °F 31.8 °F 18.0 °F 43% 29.99 in 10.0 mi West 11.5 mph - N/A   Overcast
2:51 PM 39.0 °F 31.0 °F 19.0 °F 45% 29.99 in 10.0 mi West 13.8 mph - N/A   Overcast
3:51 PM 37.9 °F 30.5 °F 14.0 °F 38% 30.00 in 10.0 mi West 11.5 mph - N/A   Overcast
4:51 PM 36.0 °F 27.5 °F 14.0 °F 41% 30.01 in 10.0 mi West 12.7 mph - N/A   Overcast
5:51 PM 34.0 °F 26.6 °F 17.1 °F 50% 30.02 in 10.0 mi West 9.2 mph - N/A   Overcast
6:51 PM 33.1 °F 23.9 °F 12.0 °F 42% 30.02 in 10.0 mi West 12.7 mph - N/A   Mostly Cloudy
7:51 PM 30.0 °F 21.1 °F 12.9 °F 49% 30.03 in 10.0 mi WNW 10.4 mph - N/A   Scattered Clouds
8:51 PM 28.9 °F 18.6 °F 14.0 °F 54% 30.04 in 10.0 mi West 12.7 mph - N/A   Partly Cloudy
9:51 PM 27.0 °F 15.2 °F 14.0 °F 58% 30.05 in 10.0 mi WNW 15.0 mph - N/A   Partly Cloudy
10:51 PM 25.0 °F 14.2 °F 14.0 °F 63% 30.06 in 10.0 mi West 11.5 mph - N/A   Partly Cloudy
11:51 PM 24.1 °F 15.2 °F 12.0 °F 60% 30.06 in 10.0 mi West 8.1 mph - N/A   Partly Cloudy